Back to catalog

DELTA 2 R/B(2)

AliveHEO
NORAD 23641·ROCKET BODY·🇺🇸 United States

Launched Aug 5, 1995 from Cape Canaveral Space Force Station

Loading…

Next Passes (next 24 hours)

TLE

FreshSource: Space-Track

Epoch: Sep 14, 2026, 01:57 UTC

1 23641U 95041C   26257.08163046 -.00000118  00000-0  00000-0 0  9996
2 23641  20.7863  16.2083 6426642  96.3054 184.0881  2.70406702307458

Track DELTA 2 R/B(2) in real time with AllMySat

Download on the App Store